RH
13 14 15 12 11 10 11 12 12 12 11 12 13 12 19 19 18 17 17 16 28 39 40 48 50 55 58 61 66 73 74 76 81 78 81 78 79 74 69 69 56 57 63 61
15 16 12 9 10 9 8 10 11 14 12 15 19 17 16 20 20 20 19 18 32 42 44 48 54 56 56 63 65 74 76 76 75 76 86 85 77 75 78 61 62 69 60 73
16 13 9 9 11 11 10 13 18 16 17 17 20 23 20 15 20 20 19 21 38 42 48 51 57 57 56 56 66 73 72 76 76 72 76 75 75 71 72 69 63 71 72 71
14 12 10 12 11 12 18 14 15 16 23 25 20 30 22 32 20 23 24 27 39 44 46 50 56 62 55 50 60 67 70 73 74 71 78 79 82 83 80 78 70 78 75 72
16 15 15 15 15 14 18 15 16 16 21 26 23 41 43 46 65 55 36 27 38 40 48 58 69 67 52 45 56 67 70 73 76 77 77 82 83 83 81 78 83 77 79 76
16 12 14 16 14 13 14 16 22 26 26 35 54 51 53 54 71 77 59 30 34 48 51 63 68 62 44 40 50 65 69 68 65 65 69 73 78 81 86 88 82 88 86 86
21 16 12 13 18 17 20 35 56 57 50 48 42 56 63 41 32 36 40 37 42 55 60 61 55 41 48 52 53 55 60 59 62 62 63 69 80 82 81 84 93 94 94 91
38 37 20 16 24 27 21 34 50 67 60 52 35 53 48 33 28 27 28 47 48 59 64 44 46 50 47 49 49 45 50 53 60 61 71 76 77 83 84 91 95 97 96 96
37 33 19 15 17 18 24 30 30 41 43 47 54 58 44 35 28 26 27 31 36 38 39 47 44 39 40 50 58 58 62 67 61 61 62 67 72 90 93 91 94 95 94 94
34 46 25 19 20 20 27 22 41 57 73 73 56 58 62 40 37 33 34 36 36 34 37 40 40 43 50 52 59 62 68 70 69 66 68 82 88 89 92 94 94 94 95 93
40 49 44 30 35 38 38 40 48 46 54 69 70 61 40 50 42 34 32 35 37 34 33 35 41 46 47 52 62 67 64 67 68 72 76 87 92 91 93 92 93 94 93 93
57 53 59 42 28 27 35 43 46 69 58 62 73 70 39 40 38 34 36 32 37 37 39 40 40 50 63 64 65 66 69 67 70 70 79 88 91 93 93 94 92 91 91 89
49 69 77 55 45 39 41 32 42 44 55 55 67 61 48 43 40 35 35 37 38 44 44 46 50 53 59 60 62 66 73 73 68 65 78 86 92 94 93 93 82 92 89 89
54 61 59 70 51 44 49 37 46 46 70 58 53 57 58 59 51 38 40 46 50 48 48 54 59 62 62 64 66 68 76 80 72 77 85 93 94 94 87 85 92 93 90 84
52 67 60 49 40 34 32 31 29 38 37 59 45 48 72 58 44 49 53 50 48 48 54 59 63 71 76 72 74 78 86 82 73 81 89 92 88 86 88 91 93 93 91 90
66 73 63 62 42 38 39 34 33 29 29 34 47 48 42 43 53 58 57 53 53 57 60 61 64 72 80 79 75 84 88 87 84 84 91 87 83 84 89 89 90 90 91 90
61 77 80 78 49 46 59 43 34 34 42 45 61 52 41 50 62 66 66 61 60 63 66 70 76 83 90 88 83 94 93 89 93 93 84 83 83 84 86 85 87 91 93 91
59 70 77 88 66 82 53 38 36 50 50 48 48 45 50 59 66 64 67 71 70 71 75 81 85 92 85 85 93 94 94 93 91 89 86 80 79 83 84 89 90 92 92 91
60 70 88 90 92 61 46 54 50 59 66 50 50 50 58 54 61 73 64 69 78 86 88 81 76 92 85 85 92 88 93 87 84 85 81 80 79 85 84 92 93 92 93 93
45 61 86 81 87 79 77 55 41 42 86 58 54 65 64 60 84 89 72 72 82 86 88 93 91 77 89 91 91 93 92 91 89 80 81 74 77 82 90 90 92 91 91 93
77 74 82 85 90 78 75 51 44 78 87 62 63 64 66 76 81 71 70 81 86 89 91 91 91 91 91 91 93 93 91 87 80 79 73 71 82 85 88 89 92 93 93 92
74 84 86 81 82 97 72 68 80 67 61 64 67 70 73 74 71 73 78 87 90 90 92 90 80 87 88 90 92 81 82 81 82 78 74 71 78 76 78 89 92 90 87 86
85 81 84 75 86 85 79 65 61 62 63 63 67 74 72 76 75 79 91 91 85 90 94 90 78 87 88 76 72 79 86 83 80 78 83 79 80 86 88 92 92 90 92 84
63 59 68 73 78 74 68 63 59 62 62 59 64 69 73 79 83 87 87 93 89 93 94 93 92 92 79 72 71 78 81 82 83 89 79 84 90 94 93 88 92 98 98 97
64 59 52 66 68 66 66 65 61 58 59 59 63 71 76 83 86 92 91 91 95 94 93 91 92 85 82 71 71 82 80 82 85 89 77 82 93 95 97 98 99 96 97 97
66 69 78 89 65 76 78 63 57 65 65 67 70 74 79 80 90 94 94 94 94 93 88 84 81 78 81 76 70 76 81 75 82 84 83 94 96 98 97 97 97 98 96 94
Wind_Speed
8 3 8 14 13 11 7 5 8 7 6 6 7 5 8 10 7 9 8 8 11 18 17 19 17 16 15 12 12 10 8 5 5 4 3 4 4 4 5 6 11 11 10 11
6 9 14 5 3 6 8 7 9 3 5 4 6 5 5 7 10 9 10 9 14 16 15 17 16 16 14 10 11 10 9 8 4 2 1 2 1 2 1 4 6 6 11 8
5 4 7 7 8 8 7 4 6 6 4 4 3 5 7 10 6 8 6 6 19 19 17 15 15 13 13 11 11 9 9 9 6 5 2 0 1 1 1 3 4 3 5 6
5 2 5 4 6 5 5 8 9 11 9 2 3 6 4 13 11 6 8 8 15 16 14 12 14 9 12 9 10 10 9 9 7 6 3 3 3 2 2 2 3 5 5 6
9 7 9 7 4 7 5 8 7 6 8 7 11 6 7 12 11 17 15 9 13 14 10 12 10 9 7 8 10 8 8 8 6 5 4 2 1 2 1 2 4 5 5 6
8 5 3 2 7 7 5 8 8 6 2 4 4 5 6 8 6 6 20 7 9 15 13 10 7 7 7 4 4 7 9 7 5 5 5 3 2 3 5 4 4 4 4 4
9 9 8 7 6 8 8 4 5 6 6 5 5 6 4 4 11 9 4 5 18 12 9 6 4 3 10 8 7 8 7 4 4 3 2 3 7 5 4 4 3 5 4 3
6 8 7 4 1 2 6 1 5 2 3 5 3 2 5 1 7 9 12 13 11 8 2 10 11 8 7 7 7 5 3 3 6 6 7 7 6 4 3 2 3 4 3 4
3 4 14 15 2 5 6 5 3 1 4 4 4 6 9 7 4 8 14 13 10 8 9 7 5 4 8 10 9 9 9 9 8 7 5 6 6 6 4 5 5 4 4 4
5 6 4 9 3 4 4 4 7 6 4 4 4 3 2 7 8 9 9 9 8 9 9 9 14 13 9 8 9 12 9 6 7 7 6 5 4 5 5 4 6 6 6 5
7 1 8 8 4 4 5 6 8 3 3 4 2 3 7 7 6 8 8 8 8 9 10 12 12 10 14 14 11 9 9 8 7 6 5 6 6 6 6 4 5 6 5 5
1 2 3 9 10 1 2 3 2 6 5 1 5 5 2 9 7 9 7 7 7 11 11 11 12 15 13 12 12 13 11 10 7 6 6 5 5 6 6 6 7 6 5 6
3 4 4 9 7 7 4 10 6 3 4 2 4 4 6 9 9 10 6 7 9 13 14 13 14 13 12 11 10 10 10 12 8 9 6 6 7 6 6 6 7 6 5 5
5 0 3 5 9 7 6 2 11 2 4 6 6 2 8 8 2 8 9 11 10 10 13 12 12 12 11 11 10 11 10 10 10 7 6 6 6 7 6 7 7 7 6 6
5 1 4 7 11 14 15 12 10 2 5 5 9 3 9 1 6 10 10 12 12 12 14 12 11 7 7 9 6 7 7 9 11 8 8 8 7 7 7 7 7 7 7 6
4 3 4 4 10 14 17 11 13 7 7 5 15 12 8 5 11 12 10 9 8 10 10 9 9 10 8 9 7 6 8 9 9 9 8 8 7 7 7 7 6 6 6 6
1 3 5 4 6 9 7 5 6 11 17 10 12 7 8 9 11 6 7 6 9 11 11 10 9 7 6 7 9 7 8 8 7 8 9 8 7 7 7 6 6 7 5 4
4 2 1 4 4 2 2 16 15 19 14 13 12 10 8 7 6 9 8 9 9 10 9 7 6 6 7 7 6 7 7 6 7 8 8 6 6 6 7 7 6 6 4 5
6 4 2 2 2 6 5 7 8 7 7 11 8 8 8 8 5 12 10 11 10 9 6 5 5 5 6 7 5 6 7 7 7 6 6 6 6 6 6 7 6 5 5 4
2 5 5 2 1 2 4 9 6 4 2 7 7 8 8 7 4 2 6 10 9 6 4 4 5 5 5 6 5 6 7 7 7 6 6 6 6 5 6 5 6 4 3 4
2 2 5 4 4 3 13 12 13 1 2 5 7 5 6 6 4 5 8 9 7 5 7 6 6 5 5 6 6 7 6 7 7 7 7 6 6 5 5 5 5 6 7 6
1 3 1 3 3 4 4 8 5 1 5 8 8 7 8 7 9 9 8 7 6 7 6 6 6 6 7 7 5 5 6 7 7 7 8 8 4 4 4 7 7 8 10 7
4 2 2 4 3 6 6 4 6 7 8 9 11 9 7 9 9 8 6 6 6 5 5 4 5 7 7 6 5 6 3 5 5 7 7 6 6 6 6 6 7 7 8 6
3 3 3 5 3 4 6 9 9 9 8 11 10 10 9 7 8 6 6 5 4 4 5 5 7 8 6 7 8 6 8 6 6 6 6 5 4 5 7 6 5 6 6 5
5 2 4 7 6 9 8 8 8 9 12 12 10 10 8 8 8 5 4 4 4 4 5 5 6 6 8 7 6 1 2 4 5 6 6 5 4 5 6 5 4 4 5 4
3 1 3 3 2 7 6 7 9 13 10 8 9 8 10 7 4 5 4 3 3 5 5 5 6 4 6 8 4 2 4 6 6 6 5 4 5 5 4 3 2 6 4 8
Wind_Direction
256 159 223 236 238 242 278 343 305 19 70 127 202 206 193 186 178 184 197 210 148 141 138 127 126 123 117 114 116 115 102 66 52 20 12 24 13 347 340 13 351 350 1 338
280 210 237 299 338 355 344 340 313 315 168 74 36 344 327 186 201 189 196 218 132 133 125 130 125 127 132 133 131 122 126 114 104 72 63 96 337 321 11 350 326 354 347 343
251 263 38 4 340 334 312 325 352 326 106 148 199 304 273 276 187 190 158 91 135 138 131 135 129 140 137 136 132 134 141 139 146 141 135 99 329 14 5 317 330 341 323 333
309 59 56 351 306 329 6 11 15 356 17 297 65 272 355 348 312 88 73 74 125 135 134 140 140 124 136 144 143 154 158 146 146 145 138 178 175 198 207 266 300 308 330 349
273 354 27 346 26 31 292 35 356 334 328 8 345 36 305 33 3 3 333 79 117 137 126 111 101 100 126 153 172 159 143 126 133 153 151 157 238 253 273 338 337 323 353 325
272 241 137 324 2 338 339 350 348 337 326 354 130 71 294 334 172 115 276 237 132 104 93 98 129 174 182 151 80 106 101 122 166 171 168 147 251 306 21 357 344 342 316 316
332 325 103 74 348 339 3 36 350 351 4 256 135 147 225 67 76 57 347 324 72 65 81 83 99 78 73 78 73 98 104 141 205 207 73 41 44 59 27 348 338 328 297 307
39 347 9 59 341 28 322 199 155 292 320 276 114 151 251 78 88 75 80 77 73 86 102 61 90 112 119 137 134 129 148 271 24 37 43 53 35 22 14 8 320 295 290 304
9 295 335 326 256 70 308 332 231 184 297 23 143 353 7 328 41 55 70 76 68 63 61 112 138 79 34 49 50 46 30 57 51 70 48 42 40 38 10 333 314 284 305 300
347 327 325 297 18 267 262 218 13 0 32 339 352 112 222 60 46 59 54 41 44 46 69 57 68 59 54 45 45 35 37 55 37 48 39 50 26 9 338 323 309 310 309 333
17 76 302 328 41 327 11 349 44 315 151 177 293 226 150 128 80 54 52 64 57 45 45 65 71 65 53 49 47 44 36 21 12 30 24 23 16 339 320 316 319 321 335 344
1 249 289 273 312 188 60 15 253 132 280 91 151 278 126 96 86 72 62 55 57 61 62 55 53 61 53 40 31 20 12 3 7 355 26 20 349 324 331 335 328 325 341 331
336 346 9 344 353 25 59 304 299 83 73 184 123 236 28 28 50 41 31 29 51 54 52 47 43 39 38 30 26 20 8 348 349 355 357 351 337 323 325 331 320 313 319 302
92 299 184 210 265 289 285 170 298 215 134 217 215 59 8 25 40 55 34 55 61 56 58 51 40 31 26 22 15 7 358 347 341 329 352 339 316 312 324 313 303 298 293 286
136 189 298 309 312 307 301 318 312 299 271 161 204 143 199 17 55 62 59 48 36 40 46 39 31 21 15 8 6 2 347 333 337 348 332 307 313 320 310 299 297 292 296 294
358 278 316 304 306 318 316 319 287 348 325 52 97 89 93 83 83 69 58 43 33 52 46 32 25 19 7 356 351 350 330 333 328 330 311 306 306 300 295 294 305 317 322 322
46 19 354 264 320 323 337 287 338 58 33 51 69 71 44 51 81 85 96 67 54 47 35 26 15 7 354 347 344 344 327 320 318 306 302 301 311 322 322 324 339 335 324 326
176 89 267 265 17 334 237 33 46 73 48 42 41 30 52 76 121 59 79 84 68 57 35 21 1 339 338 335 328 324 306 303 300 296 304 311 322 332 334 337 344 343 337 346
149 115 311 136 198 259 313 32 57 57 38 24 24 17 42 10 137 65 77 79 74 67 45 4 343 320 323 320 327 300 310 308 311 309 332 325 335 338 349 344 355 351 4 10
30 143 134 336 290 296 27 5 341 105 77 359 21 43 31 22 44 39 73 85 81 83 66 353 338 333 344 313 312 312 307 306 308 321 317 307 320 2 4 4 355 338 16 6
279 267 204 236 227 109 351 343 315 165 296 339 82 60 37 33 82 98 76 82 79 60 20 359 327 317 306 320 321 311 316 335 321 325 308 330 18 42 20 14 6 2 354 34
71 307 252 354 61 269 335 41 24 261 17 51 58 46 51 53 63 60 59 64 47 31 8 351 320 330 306 294 293 326 343 332 355 5 359 353 37 27 14 43 18 18 8 26
38 106 181 131 197 196 229 134 88 74 59 53 59 52 48 45 42 47 58 50 35 8 344 325 312 312 311 331 344 332 350 12 3 359 354 351 24 38 29 49 34 26 16 25
58 23 70 97 88 135 132 64 63 71 65 67 61 55 48 42 43 34 34 37 12 348 334 320 314 313 343 349 352 11 6 341 352 344 342 341 44 54 40 34 59 42 24 18
187 124 105 103 101 85 66 77 69 60 63 57 61 64 44 44 40 11 356 359 344 337 323 305 316 349 347 312 332 178 273 349 1 342 333 24 41 84 72 53 28 62 37 29
60 128 106 163 102 110 99 77 70 78 69 63 63 63 61 41 31 359 21 354 357 321 299 333 323 336 305 302 329 72 14 2 10 2 27 43 44 41 60 66 74 72 88 53